Terminal Aerodrome Forecast
Issued by NWS Sterling, VA

Current Version | Previous Version | Text Only | Print | Product List | Glossary On
Versions: 1 2 3 4 5 6 7 8 9 10 11 12 13 14 15 16 17 18 19 20 21 22 23 24 25 26 27 28 29 30 31 32 33 34 35 36 37 38 39 40 41 42 43 44 45 46 47 48 49 50
000
FTUS41 KLWX 131456 AAK
TAFDCA
TAF AMD
KDCA 131456Z 1315/1418 17008KT P6SM SCT040 BKN070
     FM132200 17008KT P6SM BKN110
     FM140200 16004KT P6SM -SHRA BKN035
     FM140600 18004KT P6SM BKN010
     FM141300 21004KT P6SM BKN020
     FM141600 25004KT P6SM SCT030=

USA.gov is the U.S. government's official web portal to all federal, state and local government web resources and services.